Regional Weather Roundup
Issued by NWS

Home | Current Version | Previous Version | Graphics & Text | Print | Product List | Glossary On
Versions: 1 2 3 4 5 6 7 8 9 10 11 12 13 14 15 16 17 18 19 20 21 22 23 24 25 26 27 28 29 30 31 32 33 34 35 36 37 38 39 40 41 42 43 44 45 46 47 48 49 50
000
ASUS43 KBIS 011520
RWRND

NORTH DAKOTA REGIONAL WEATHER ROUNDUP
NATIONAL WEATHER SERVICE BISMARCK ND
1000 AM CDT MON SEP 01 2014

NOTE: "FAIR" INDICATES FEW OR NO CLOUDS BELOW 12,000 FEET WITH NO
SIGNIFICANT WEATHER AND/OR OBSTRUCTIONS TO VISIBILITY.


NDZ001>003-009>011-017-011600-
NORTHWEST NORTH DAKOTA

CITY           SKY/WX    TMP DP  RH WIND       PRES   REMARKS
WILLISTON      SUNNY     60  51  72 W13       29.85R
MINOT          MOSUNNY   62  51  67 NW12      29.78R
MINOT AFB      MOSUNNY   59  55  87 NW12      29.77R
$$

NDZ018>021-031>035-040>046-011600-
SOUTHWEST NORTH DAKOTA

CITY           SKY/WX    TMP DP  RH WIND       PRES   REMARKS
BISMARCK       SUNNY     61  53  75 NW8       29.80S
DICKINSON      PTSUNNY   59  50  72 W13       29.84R
GARRISON         N/A     60  51  72 NW10      29.80R
HETTINGER ARPT SUNNY     59  50  72 W14       29.87R
$$

NDZ004>008-012>016-024-026-027-054-011600-
NORTHEAST NORTH DAKOTA

CITY           SKY/WX    TMP DP  RH WIND       PRES   REMARKS
GRAND FORKS    MOSUNNY   65  58  78 W5        29.70S
GRND FRKS AFB  MOSUNNY   67  59  77 VRB6      29.71R
DEVILS LAKE    MOSUNNY   61  52  72 W6        29.72R
$$

NDZ022-023-025-028>030-036>039-047>053-011600-
SOUTHEAST NORTH DAKOTA

CITY           SKY/WX    TMP DP  RH WIND       PRES   REMARKS
FARGO          SUNNY     65  57  75 N5        29.72R
JAMESTOWN      SUNNY     64  56  75 W8        29.75S
$$




USA.gov is the U.S. government's official web portal to all federal, state and local government web resources and services.